CAPE
0 0 0 0 0 0 0 0 0 0 0 0 0 0 0 2 18 4 1009 1052 827 1187 904 1421 1592 1695 1661 1216 1249 1470 1408 1190 993 963 990 969 1033 1069 1063 1055 1061 893 660 319 16 0 0 0 0
0 0 0 0 0 0 0 0 0 0 0 0 0 0 15 67 1082 1085 1391 1129 1116 1160 904 1297 1574 1649 1726 1313 1319 1541 1619 1461 1264 1025 985 1014 1035 977 876 835 715 498 200 14 0 0 0 0 0
0 0 0 0 0 0 0 0 0 0 0 0 0 0 0 64 1081 1048 1339 1249 1082 920 843 1350 1502 1612 1765 1436 1286 1478 1543 1404 1318 1257 1227 1156 1063 911 769 505 229 95 7 0 0 0 0 0 0
0 0 0 0 0 0 0 0 0 0 0 0 0 0 0 774 962 1228 1207 1233 1014 766 841 1333 1537 1708 1805 1638 1460 1440 1379 1290 1218 1197 1105 989 949 823 500 137 51 10 0 0 0 0 0 0 0
0 0 0 0 0 0 0 0 0 0 0 0 0 0 0 842 1253 1173 1207 1262 937 737 802 1279 1562 1781 1829 1723 1628 1392 1231 1188 1227 1187 1006 915 797 497 136 28 1 0 0 0 0 0 0 0 0
0 0 0 0 0 0 0 0 0 0 0 0 0 0 0 1018 1250 1131 1244 1072 895 735 785 1157 1580 1763 1840 1806 1669 1395 1327 1312 1276 1135 957 788 554 278 60 0 0 0 0 0 0 0 0 0 0
0 0 0 0 0 0 0 0 0 0 0 0 0 0 11 984 1354 1080 1002 940 830 676 741 1123 1475 1710 1639 1777 1684 1401 1317 1308 1235 1006 841 628 329 121 11 0 0 0 0 0 0 0 0 0 0
0 0 0 0 0 0 0 0 0 0 0 0 0 0 0 857 1398 1124 1023 966 715 569 554 944 1326 1459 1141 1440 1470 1365 1291 1211 1091 843 655 358 128 42 0 0 0 0 0 0 0 0 0 0 0
0 0 0 0 0 0 0 0 0 0 0 0 0 0 0 747 1336 1259 1178 966 649 428 383 784 1173 1357 1126 1354 1378 1374 1247 1075 887 651 339 96 18 3 0 0 0 0 0 0 0 0 0 0 0
0 0 0 0 0 0 0 0 0 0 0 0 0 0 147 1099 1419 1213 1164 1046 814 512 309 460 915 1184 1176 1152 1377 1340 1196 899 628 329 82 0 0 0 0 0 0 0 0 0 0 0 0 0 0
0 0 0 0 0 0 0 0 0 0 0 0 0 0 320 1011 1456 1436 1330 1101 923 774 516 334 518 665 837 1101 1232 1182 1067 699 291 93 0 0 0 0 0 0 0 0 0 0 0 0 0 0 0
0 0 0 0 0 0 0 0 0 0 0 0 0 0 46 720 1133 1363 1265 1228 1033 929 779 493 398 494 606 607 894 933 701 431 208 3 0 0 0 0 0 0 0 0 0 0 0 0 0 0 0
0 0 0 0 0 0 0 0 0 0 0 0 0 0 0 8 571 1219 1361 1424 1335 1057 868 632 388 370 564 568 630 661 522 321 79 0 0 0 0 0 0 0 0 0 0 0 0 0 0 0 0
0 0 0 0 0 0 0 0 0 0 0 0 0 0 0 0 5 272 1159 1488 1430 1265 989 721 564 335 312 399 375 437 357 161 9 0 0 0 0 0 0 0 0 0 0 0 0 0 0 0 0
0 0 0 0 0 0 0 0 0 0 0 0 0 0 0 0 0 1 185 777 1335 1294 1037 822 709 464 382 254 233 148 96 39 1 0 0 0 0 0 0 0 0 0 0 0 0 0 0 0 0
7 5 0 0 0 0 0 0 0 0 0 0 0 0 0 0 0 0 0 202 846 1204 1120 880 804 664 589 459 374 202 9 2 1 0 0 0 0 0 0 0 0 0 0 0 0 0 0 0 0
16 0 0 0 0 0 0 0 0 0 0 0 0 0 0 0 0 0 0 42 451 870 1074 960 837 811 615 550 397 260 47 1 1 0 0 0 0 0 0 0 0 0 0 0 0 0 0 0 0
0 1 2 1 0 0 0 0 0 0 0 0 0 0 0 0 0 0 0 1 210 730 976 997 945 882 560 413 242 207 35 2 1 0 0 0 0 0 0 0 0 0 0 0 0 0 0 0 0
0 0 0 0 0 0 0 0 0 0 0 0 0 0 0 0 0 0 0 0 65 513 904 1054 941 975 739 473 287 221 148 5 1 0 0 0 0 0 0 0 0 0 0 0 0 0 0 0 0
0 1 0 0 0 0 0 0 0 0 0 0 0 0 0 0 0 0 0 0 0 133 664 1115 1061 919 723 505 467 274 167 21 0 0 0 0 0 0 0 0 0 0 0 0 0 0 0 0 0
1 0 5 2 3 4 2 0 0 0 0 0 0 0 0 0 0 0 0 0 0 6 368 800 1159 1028 791 633 502 381 158 50 1 1 1 0 0 0 0 0 0 0 0 0 0 0 0 0 0
5 1 4 5 14 12 8 0 0 0 0 0 0 0 0 0 0 0 0 0 0 0 79 478 922 1110 951 706 484 380 275 173 41 1 0 0 0 0 0 0 0 0 0 0 0 0 0 0 0
0 0 0 23 26 37 1 7 0 0 0 0 0 0 0 0 0 0 0 0 0 0 0 281 621 998 1025 835 718 535 392 290 218 1 0 0 0 0 0 0 0 0 0 0 0 0 0 0 0
8 34 40 34 18 13 0 34 0 0 0 0 0 0 0 0 0 0 0 0 0 0 0 14 539 834 1019 866 847 642 518 434 314 50 0 0 0 0 0 0 0 0 0 0 0 0 0 0 0
40 40 14 4 10 0 0 20 0 0 0 0 0 0 0 0 0 0 0 0 0 0 0 0 270 693 978 905 760 712 610 565 393 77 0 0 0 0 0 0 0 0 0 0 0 0 0 0 0
21 14 8 4 2 0 0 5 0 0 0 0 0 0 0 0 0 0 0 0 0 0 0 0 43 435 876 899 811 767 647 551 412 128 0 0 0 0 0 0 0 0 0 0 0 0 0 0 0
1 2 0 9 0 0 0 0 0 0 0 0 0 0 0 0 0 0 0 0 0 0 0 0 50 505 765 839 874 789 663 568 428 134 0 0 0 0 0 0 0 0 0 0 0 0 0 0 0
0 0 0 0 0 4 4 0 0 0 0 0 0 0 0 0 0 0 0 0 0 0 40 171 261 697 900 936 861 776 701 610 403 18 0 0 0 0 0 0 0 0 0 0 0 0 0 0 0
0 0 0 0 0 0 0 0 0 0 0 0 0 0 0 0 0 0 0 0 0 0 21 286 638 853 995 978 910 709 558 324 51 0 0 0 0 0 0 0 0 0 0 0 0 0 0 0 0
0 0 0 0 0 0 0 0 0 0 0 0 0 0 0 0 0 0 0 0 0 0 0 44 365 703 847 767 713 455 192 0 0 0 0 0 0 0 0 0 0 0 0 0 0 0 0 0 0
CIN
0 0 0 0 0 0 0 0 0 0 0 0 0 0 0 -25 -117 -10 -484 -510 -546 -456 -570 -398 -310 -252 -229 -311 -280 -217 -210 -230 -256 -266 -277 -273 -241 -228 -215 -200 -202 -237 -270 -329 -474 0 0 0 0
0 0 0 0 0 0 0 0 0 0 0 0 0 0 -85 -71 -173 -277 -325 -493 -484 -474 -536 -407 -308 -250 -213 -279 -276 -189 -173 -201 -229 -260 -267 -259 -230 -235 -233 -245 -279 -320 -398 -467 0 0 0 0 0
0 0 0 0 0 0 0 0 0 0 0 0 0 0 0 -80 -201 -232 -359 -446 -506 -512 -519 -357 -304 -267 -207 -250 -270 -202 -159 -187 -205 -208 -208 -231 -227 -251 -274 -345 -421 -502 -555 0 0 0 0 0 0
0 0 0 0 0 0 0 0 0 0 0 0 0 0 0 -198 -152 -299 -473 -459 -482 -525 -494 -349 -285 -264 -212 -201 -234 -208 -185 -186 -196 -202 -217 -234 -240 -275 -362 -493 -566 -610 0 0 0 0 0 0 0
0 0 0 0 0 0 0 0 0 0 0 0 0 0 0 -189 -315 -400 -453 -459 -448 -478 -459 -321 -250 -220 -209 -192 -202 -216 -204 -191 -175 -189 -219 -239 -278 -371 -511 -627 -229 0 0 0 0 0 0 0 0
0 0 0 0 0 0 0 0 0 0 0 0 0 0 0 -336 -335 -430 -454 -470 -464 -466 -409 -301 -207 -193 -183 -169 -167 -196 -170 -141 -138 -162 -197 -237 -313 -442 -582 0 0 0 0 0 0 0 0 0 0
0 0 0 0 0 0 0 0 0 0 0 0 0 0 -95 -267 -366 -427 -412 -410 -420 -444 -385 -278 -203 -164 -174 -155 -140 -169 -148 -125 -120 -151 -187 -238 -335 -453 -596 0 0 0 0 0 0 0 0 0 0
0 0 0 0 0 0 0 0 0 0 0 0 0 0 0 -217 -360 -370 -341 -341 -374 -387 -413 -306 -213 -184 -241 -170 -162 -146 -141 -116 -130 -150 -172 -259 -358 -455 0 0 0 0 0 0 0 0 0 0 0
0 0 0 0 0 0 0 0 0 0 0 0 0 0 0 -169 -287 -293 -278 -298 -359 -406 -436 -322 -233 -203 -236 -178 -150 -117 -118 -117 -129 -161 -205 -293 -417 -126 0 0 0 0 0 0 0 0 0 0 0
0 0 0 0 0 0 0 0 0 0 0 0 0 0 -159 -158 -186 -253 -269 -302 -337 -388 -419 -389 -280 -230 -208 -196 -129 -108 -95 -117 -152 -225 -343 0 0 0 0 0 0 0 0 0 0 0 0 0 0
0 0 0 0 0 0 0 0 0 0 0 0 0 0 -157 -118 -133 -150 -186 -244 -348 -339 -384 -418 -351 -290 -251 -206 -152 -130 -123 -156 -246 -313 0 0 0 0 0 0 0 0 0 0 0 0 0 0 0
0 0 0 0 0 0 0 0 0 0 0 0 0 0 -135 -75 -98 -138 -169 -217 -263 -293 -329 -366 -358 -318 -273 -277 -211 -187 -211 -266 -309 -120 0 0 0 0 0 0 0 0 0 0 0 0 0 0 0
0 0 0 0 0 0 0 0 0 0 0 0 0 0 0 -166 -85 -103 -155 -166 -189 -240 -280 -342 -388 -375 -299 -298 -259 -226 -258 -297 -379 0 0 0 0 0 0 0 0 0 0 0 0 0 0 0 0
0 0 0 0 0 0 0 0 0 0 0 0 0 0 0 0 -154 -154 -151 -156 -164 -215 -266 -299 -333 -374 -378 -329 -328 -290 -301 -349 -461 0 0 0 0 0 0 0 0 0 0 0 0 0 0 0 0
0 0 0 0 0 0 0 0 0 0 0 0 0 0 0 0 0 -28 -251 -171 -194 -250 -294 -303 -305 -320 -336 -405 -377 -385 -409 -444 0 0 0 0 0 0 0 0 0 0 0 0 0 0 0 0 0
-6 -6 0 0 0 0 0 0 0 0 0 0 0 0 0 0 0 0 0 -313 -249 -230 -262 -297 -291 -297 -284 -310 -339 -373 -466 0 0 0 0 0 0 0 0 0 0 0 0 0 0 0 0 0 0
-0 0 0 -0 0 0 0 0 0 0 0 0 0 0 0 0 0 0 0 -483 -317 -283 -268 -264 -280 -294 -322 -292 -301 -334 -447 0 0 0 0 0 0 0 0 0 0 0 0 0 0 0 0 0 0
0 0 -0 -0 0 0 0 0 0 0 0 0 0 0 0 0 0 0 0 -154 -417 -324 -336 -305 -278 -276 -335 -303 -308 -291 -416 0 0 0 0 0 0 0 0 0 0 0 0 0 0 0 0 0 0
0 0 0 0 0 0 0 0 0 0 0 0 0 0 0 0 0 0 0 0 -564 -388 -330 -305 -280 -258 -225 -269 -333 -372 -400 -375 0 0 0 0 0 0 0 0 0 0 0 0 0 0 0 0 0
0 0 0 -0 0 0 0 0 0 0 0 0 0 0 0 0 0 0 0 0 -96 -535 -407 -364 -377 -336 -339 -360 -389 -401 -439 -456 0 -0 0 0 0 0 0 0 0 0 0 0 0 0 0 0 0
0 0 0 -0 -0 -6 -5 0 0 0 0 0 0 0 0 0 0 0 0 0 0 -122 -470 -428 -403 -384 -401 -422 -365 -302 -322 -298 0 0 0 0 0 0 0 0 0 0 0 0 0 0 0 0 0
0 -0 -0 0 0 -0 -3 0 0 0 0 0 0 0 0 0 0 0 0 0 0 0 -488 -439 -461 -392 -401 -410 -369 -370 -425 -406 -499 -197 0 0 0 0 0 0 0 0 0 0 0 0 0 0 0
0 0 -0 -1 -0 -1 -2 -2 0 0 0 0 0 0 0 0 0 0 0 0 0 0 0 -438 -459 -399 -398 -379 -373 -420 -400 -419 -389 -149 0 0 0 0 0 0 0 0 0 0 0 0 0 0 0
-2 -2 -4 -8 -6 -5 0 -1 0 0 0 0 0 0 0 0 0 0 0 0 0 0 0 -494 -393 -398 -356 -388 -386 -422 -448 -416 -371 -436 0 0 0 0 0 0 0 0 0 0 0 0 0 0 0
-4 -1 -2 -3 -1 0 0 -2 0 0 0 0 0 0 0 0 0 0 0 0 0 0 0 0 -380 -398 -367 -356 -369 -392 -428 -420 -448 -482 0 0 0 0 0 0 0 0 0 0 0 0 0 0 0
-3 -2 -0 -1 -2 0 0 -5 0 0 0 0 0 0 0 0 0 0 0 0 0 0 0 0 -126 -356 -344 -355 -389 -391 -392 -395 -424 -474 0 0 0 0 0 0 0 0 0 0 0 0 0 0 0
-1 -2 -8 -13 0 -2 0 0 -0 0 0 0 0 0 0 0 0 0 0 0 0 0 0 0 -371 -345 -349 -363 -357 -371 -390 -378 -429 -518 0 0 0 0 0 0 0 0 0 0 0 0 0 0 0
0 0 0 -0 -0 -1 -2 0 0 0 0 0 0 0 0 0 0 0 0 0 0 0 -544 -446 -394 -285 -241 -198 -205 -251 -291 -326 -346 -372 0 0 0 0 0 0 0 0 0 0 0 0 0 0 0
0 0 0 0 0 0 0 0 0 0 0 0 0 0 0 0 0 0 0 0 0 0 -347 -339 -242 -207 -179 -149 -166 -196 -223 -298 -315 0 0 0 0 0 0 0 0 0 0 0 0 0 0 0 0
0 0 0 0 0 0 0 0 0 0 0 0 0 0 0 0 0 0 0 0 0 0 0 -349 -237 -182 -179 -191 -181 -253 -348 -23 0 0 0 0 0 0 0 0 0 0 0 0 0 0 0 0 0
Wind_Speed
12 11 14 18 24 26 28 21 15 16 19 16 29 24 19 16 15 18 14 6 10 10 8 9 9 9 9 10 11 12 14 16 16 15 14 14 14 14 14 14 14 15 14 14 14 15 16 18 19
11 12 16 19 25 31 28 20 11 8 18 33 34 22 13 16 16 14 8 5 3 4 5 9 10 9 8 10 11 12 14 15 16 15 14 14 13 13 13 13 13 13 13 12 13 14 15 17 18
11 14 18 21 25 26 25 18 16 19 31 30 25 24 18 16 18 11 14 3 2 1 2 5 10 10 9 10 10 11 12 13 14 13 12 12 12 11 11 11 11 11 11 11 11 13 14 16 17
13 17 20 24 26 21 19 19 25 34 34 26 23 30 20 22 17 12 8 3 2 2 2 5 9 10 10 10 10 11 11 12 12 11 11 10 10 9 9 9 9 10 10 10 10 11 13 14 16
15 19 26 28 27 24 19 20 24 30 31 35 38 22 13 20 17 10 5 4 3 4 2 5 8 10 11 10 11 12 12 12 12 11 10 9 8 7 8 8 8 9 9 9 9 10 12 13 15
19 21 28 29 27 26 23 22 26 26 33 34 31 25 13 22 13 9 5 4 5 3 2 5 8 9 10 11 11 11 11 11 11 10 9 8 7 7 7 7 6 7 8 8 8 9 10 13 13
21 24 28 30 32 35 27 17 22 26 27 34 34 30 16 16 15 11 8 7 6 5 3 4 6 8 10 11 11 11 11 12 11 10 9 7 6 6 6 5 5 6 7 6 7 8 9 12 12
20 24 30 29 32 33 24 18 18 25 36 34 29 28 31 20 11 8 7 7 6 5 4 5 6 8 9 11 12 12 12 13 12 11 9 7 6 6 5 4 3 4 5 4 5 6 8 11 11
18 27 28 26 28 28 29 31 20 21 18 39 27 35 32 8 4 6 8 10 7 6 7 5 6 9 10 11 11 12 12 13 13 11 10 7 6 5 5 3 3 3 3 3 5 6 7 10 10
21 28 23 26 24 37 39 26 42 38 37 43 41 31 23 5 3 4 5 5 7 7 7 6 7 9 11 12 11 11 11 11 11 10 10 8 6 6 5 4 3 2 2 2 3 6 8 8 7
27 25 19 23 30 42 42 41 46 39 42 41 44 40 17 9 5 5 9 9 7 6 5 6 7 9 12 12 11 10 11 10 10 11 10 9 8 7 5 4 4 3 3 2 2 4 4 4 5
30 22 28 42 38 45 44 49 43 38 44 45 35 25 16 9 9 10 10 10 12 10 7 6 7 9 12 13 12 12 11 12 12 12 12 11 9 9 8 7 5 4 3 4 4 4 4 3 2
26 25 41 50 47 49 50 45 51 51 47 49 45 38 21 18 14 13 14 15 15 12 10 9 9 11 12 14 14 13 12 13 13 13 12 11 11 10 9 8 7 6 5 5 5 4 4 2 1
36 40 47 48 46 50 51 51 45 47 49 50 52 23 28 20 19 20 15 15 14 14 13 12 12 12 13 14 15 15 13 13 13 14 14 13 12 11 11 10 9 8 7 6 7 6 3 2 1
35 43 38 28 38 45 42 50 38 44 48 43 33 31 37 35 21 23 21 23 19 18 16 16 16 14 15 15 17 16 15 15 15 15 15 14 13 13 13 12 11 10 9 8 7 6 4 3 3
37 37 41 29 20 31 26 46 40 44 38 29 42 24 22 25 23 25 25 26 24 21 20 19 18 18 17 17 17 18 18 16 16 16 16 16 14 14 14 14 13 12 11 10 9 8 7 6 5
26 29 28 42 31 34 28 48 46 37 38 44 45 44 40 47 29 19 22 24 24 25 22 22 21 21 21 18 18 18 20 19 18 18 17 17 16 16 15 16 15 14 13 13 12 11 9 9 7
32 30 34 33 30 27 36 38 51 48 46 47 51 49 46 42 37 19 16 20 21 24 23 24 24 23 23 20 18 18 19 20 20 20 20 19 18 18 16 17 16 15 15 15 14 13 11 10 8
35 38 37 35 31 35 40 59 43 47 49 40 39 45 39 35 36 37 22 16 18 20 22 24 24 26 23 22 21 21 22 22 23 23 23 22 21 20 19 18 18 18 18 18 17 15 13 11 9
34 37 37 38 33 35 46 62 59 46 54 46 40 36 37 37 39 37 26 18 17 20 22 23 26 25 26 25 26 23 24 24 23 24 25 24 24 23 22 21 21 21 20 20 19 17 15 15 13
35 37 38 39 34 33 41 65 60 53 39 41 33 27 29 30 39 43 36 22 19 20 23 25 26 27 27 26 24 24 23 24 23 22 23 25 26 26 25 24 22 23 22 22 22 21 20 18 18
43 32 36 40 38 42 27 64 65 51 43 32 30 30 30 35 38 40 41 37 27 25 24 26 27 28 29 28 27 28 27 28 26 27 26 27 27 26 27 26 25 24 24 24 24 23 22 21 21
40 32 34 36 39 40 39 40 72 39 40 34 30 29 29 32 35 37 40 41 38 30 27 29 30 32 31 31 32 31 31 30 28 27 26 26 27 27 27 28 27 27 26 26 26 26 25 24 23
35 39 36 35 39 47 44 35 80 48 38 34 32 34 35 37 38 40 40 40 43 39 31 30 30 32 33 33 33 34 33 31 30 29 29 28 28 29 28 28 29 29 28 28 27 27 27 26 25
33 38 45 45 47 53 49 37 48 41 33 36 36 36 38 39 42 44 45 46 46 45 39 33 34 34 32 34 35 35 35 34 33 32 30 29 28 28 29 29 29 30 30 29 28 28 28 28 28
37 36 44 51 52 52 45 45 48 43 28 27 28 31 36 39 40 42 43 44 47 48 45 37 35 35 34 35 37 36 36 37 36 34 32 32 31 29 26 27 28 29 29 29 28 28 29 29 29
44 48 38 47 50 51 45 38 29 25 25 26 30 32 37 38 39 41 42 41 42 44 45 44 38 37 36 35 35 35 37 36 36 35 34 32 30 28 26 26 27 27 28 28 28 29 29 29 30
30 25 35 37 53 60 49 47 41 34 35 33 36 37 38 37 39 41 42 42 43 42 41 38 36 37 36 36 36 36 37 36 36 36 35 33 30 29 27 26 26 25 26 29 29 30 29 29 29
26 29 28 33 34 41 41 39 28 27 27 33 37 39 40 41 42 42 43 43 42 40 36 34 33 33 34 34 34 35 35 35 34 34 34 34 32 29 27 25 23 24 25 27 28 27 28 28 27
31 34 33 41 43 39 40 42 25 24 27 35 39 40 41 42 43 43 44 42 43 40 37 32 29 29 29 30 32 32 31 32 33 32 32 35 36 28 26 24 23 23 24 25 27 27 27 27 28
Wind_Direction
13 16 4 353 336 333 325 327 323 321 326 337 306 307 305 307 311 311 321 48 108 127 145 155 157 148 145 138 138 134 133 132 129 126 123 117 113 106 102 97 90 85 78 71 65 63 61 63 63
16 7 354 345 332 325 323 327 316 319 324 294 298 311 307 303 302 316 338 14 86 123 147 152 159 162 159 151 148 144 140 138 135 131 127 122 117 110 105 97 91 85 78 69 64 63 61 62 58
14 355 339 335 331 322 321 325 329 327 305 313 314 309 304 304 294 306 307 77 35 160 190 172 161 166 168 162 160 152 148 144 140 137 132 127 121 114 108 100 92 85 77 69 65 63 61 59 60
355 343 337 322 319 317 315 313 316 301 292 310 324 299 296 281 294 299 324 310 299 270 221 192 171 166 172 173 169 162 159 154 151 147 141 134 127 119 113 104 95 86 80 71 68 65 62 61 68
344 333 316 317 318 317 313 308 311 301 302 283 288 308 303 300 295 304 321 301 271 282 232 180 174 169 174 178 175 168 165 163 161 156 151 146 139 129 121 111 100 90 83 75 71 67 61 68 71
323 324 313 312 314 317 315 306 306 303 295 286 305 308 303 299 312 309 305 292 281 274 229 190 180 178 183 187 184 177 174 172 170 169 166 159 150 141 133 121 107 96 87 78 74 70 63 78 74
313 311 308 312 314 313 311 313 305 303 300 283 297 302 307 311 305 301 299 299 297 275 221 211 201 194 193 196 197 184 177 175 175 178 177 174 165 151 142 128 113 97 89 82 81 74 66 84 76
318 312 306 311 311 259 315 318 313 304 248 289 305 291 281 300 297 296 295 298 295 274 232 215 217 213 213 212 195 186 177 174 176 182 188 188 179 166 162 143 123 104 91 81 81 76 73 88 79
324 306 304 306 306 245 307 307 307 305 227 265 299 275 264 341 308 296 286 287 280 268 253 225 220 219 225 223 200 188 183 176 176 181 184 189 205 193 181 188 148 122 100 90 93 85 80 93 81
304 299 299 305 306 254 292 310 257 276 246 260 271 297 312 343 202 188 199 235 261 262 238 227 227 217 223 228 211 200 195 190 192 199 191 201 208 224 214 193 175 158 136 119 108 105 99 93 79
303 286 286 295 302 262 259 257 266 247 243 249 266 280 308 301 258 229 274 265 227 255 214 208 220 223 219 217 214 210 202 202 209 204 209 210 199 195 198 212 227 219 195 178 138 119 110 101 89
293 284 297 286 292 280 256 271 251 239 243 261 288 296 297 277 240 228 233 251 263 247 243 224 212 207 223 222 214 205 205 203 203 200 200 208 217 215 210 220 218 212 205 174 158 140 125 101 69
281 284 290 270 258 265 278 254 262 253 244 259 275 283 283 277 241 237 231 270 270 254 241 229 205 201 204 212 212 211 210 206 205 199 198 205 213 221 225 228 214 210 208 192 177 164 144 124 88
297 295 282 273 254 273 268 260 283 246 259 259 257 250 232 244 244 230 258 249 248 254 233 233 213 209 202 209 210 206 214 213 207 204 201 204 210 218 223 226 228 225 219 211 188 176 172 180 164
296 292 295 248 289 280 287 255 238 244 271 245 238 238 235 231 250 240 236 223 230 232 234 223 220 215 209 207 213 218 217 211 210 211 208 205 216 213 227 226 228 229 235 226 222 243 223 218 248
292 294 293 307 300 297 295 248 246 256 287 282 244 267 262 254 250 241 235 230 225 234 229 228 227 218 212 212 216 223 223 220 218 222 219 211 214 212 222 229 229 227 229 223 230 236 247 248 244
286 269 280 290 293 294 289 284 268 285 286 281 278 281 286 273 285 255 234 231 228 226 233 225 221 217 213 220 222 222 226 226 225 230 229 220 216 212 220 227 231 224 223 222 226 236 230 244 254
286 276 288 289 298 295 289 248 277 260 282 282 268 271 275 280 279 282 252 235 230 223 226 223 220 218 218 228 230 232 234 229 227 227 229 222 223 220 221 229 228 225 226 228 233 231 243 234 234
284 287 288 291 294 293 291 262 289 283 281 289 289 280 284 286 284 283 285 248 233 233 230 221 220 213 221 221 220 222 221 224 229 227 229 225 225 223 226 228 226 225 222 222 227 231 226 240 229
274 277 277 286 291 294 291 263 267 286 273 283 288 288 286 285 283 285 288 269 247 233 226 223 214 217 215 218 216 229 226 228 233 239 234 234 230 228 230 231 225 224 229 227 224 224 232 251 220
269 268 279 283 291 288 294 267 265 276 290 285 286 283 286 286 284 279 283 278 257 245 234 230 222 221 218 217 227 239 244 246 241 235 230 224 224 225 226 231 230 225 226 222 221 223 225 234 232
274 271 277 280 284 285 285 276 266 284 288 291 294 293 291 288 286 285 280 283 276 261 247 237 234 229 228 229 232 229 232 233 236 226 232 234 230 230 229 232 231 228 230 228 225 228 231 234 228
271 273 276 278 278 281 275 281 262 289 290 294 298 301 302 296 294 292 285 281 284 280 259 252 247 241 237 234 235 235 237 240 245 243 241 238 234 232 231 231 232 231 232 232 228 228 230 234 233
269 275 278 279 279 276 265 272 268 284 291 294 297 298 298 296 295 293 292 288 283 284 275 259 251 246 238 235 233 234 235 242 244 243 240 237 238 236 234 233 232 231 232 231 229 230 230 234 236
263 267 273 274 270 271 278 272 272 286 297 298 296 297 298 297 294 294 292 289 287 282 280 266 255 251 244 239 236 234 235 239 241 242 241 239 239 239 234 231 234 234 232 232 232 232 233 234 237
260 258 265 273 272 277 278 272 272 293 296 300 304 306 304 301 300 296 294 293 289 285 280 272 259 253 250 245 239 236 239 244 246 244 243 242 239 238 235 233 235 236 235 234 234 236 237 239 241
262 259 265 274 275 279 276 279 286 293 298 302 304 309 308 306 305 303 298 297 296 291 285 276 263 257 253 247 244 240 242 238 242 244 244 243 242 240 236 233 235 236 234 235 233 239 239 242 243
265 263 263 270 275 272 275 274 276 283 286 293 299 304 308 310 306 303 300 299 299 300 290 284 270 263 260 256 252 250 248 246 249 249 246 243 243 244 243 239 241 239 236 236 236 242 244 245 248
276 271 271 279 282 284 280 277 282 289 291 295 300 303 301 303 304 303 300 301 304 302 300 290 280 270 264 259 255 253 251 251 249 246 245 243 245 245 245 242 242 243 238 234 235 241 244 244 248
276 276 279 276 276 278 283 281 292 292 296 300 302 302 300 303 304 300 302 307 299 299 298 299 291 278 268 261 257 255 250 247 244 243 246 242 245 243 245 245 247 246 241 237 234 238 244 244 246